Find Starlink 30771

NORAD ID: 58169 Int'l Des: 2023-166 Owner: SPXS Country: US Constellation: starlink operational
LEOCIRCULAR

現在のビュー

3D地球を読み込み中...

About Starlink 30771

Starlink 30771 (NORAD 58169) is a starlink constellation satellite (v2 mini) launched Oct 29, 2023 by SPXS of US. It operates in LEO, CIRCULAR orbit with a mass of 730.00 kg.

Starlink 30771について

説明を読み込み中...

次回通過

Passes for default location (London). Set your location on the main map for personalized predictions.

高度履歴

Loading altitude history...

軌道要素

1 58169U 23166V 26170.07763060 -.00001067 00000-0 -23913-4 0 9990
2 58169 53.1610 108.5780 0001492 94.6837 265.4334 15.30189376148709
Epoch: Jun 19, 2026 • Age: 11 hours

現在のステータス

高度 489.9 km
速度 7.62 km/s
衛星直下点 -41.38°S, 31.19°W
打ち上げ日 Oct 29, 2023
運用期間 2.6 years
タイプ internet

技術仕様

分類 Payload
質量 730.00 kg
乾燥質量 700.00 kg
総質量 730.00 kg
長さ 0.30 m
直径 4.10 m
スパン 29.00 m
形状 Box + pan
製造者 SPXS
バスタイプ Starlink V2M
フェーズステータス In Orbit
所有者/国 SPXS/US

Most Searched